Погода в Мишкине

Россия / Республика Башкортостан     55°32′02″N   55°57′40″E
темп.,
°C
ветер,
м/с
пор.,
м/с
влажн.,
%
обл.,
%
осадки,
мм/ч
давл.,
гПа
погр.,
м
22 апреля, чт
чт2223:00+7юв325198 0.0 102931
02:00+7ю51551100 0.0 1029493
05:00+6ю61257100 0.0 1030718
08:00+6ю71376100 0.2 1030994
11:00+5ю71284100 0.3 1031982
14:00+8ю61070100 0.0 10301215
17:00+9ю6969100 0.1 10301221
20:00+3ю61296100 1.9 1031638
23 апреля, пт
пт2323:00+2ю51297100 5.4 1031529
02:00+1ю41199100 3.6 1030406
05:00+3ю4798100 4.2 1030685
08:00+3ю3798100 0.0 1030608
11:00+4ююв2698100 0.1 1031509
14:00+7ююв3481100 0.1 1030787
17:00+9юв2471100 0.1 1028929
20:00+7всв3789100 0.0 1027144
24 апреля, сб
сб2423:00+6всв2490100 0.0 102670
02:00+6ю2694100 0.3 1024174
05:00+6в3697100 1.0 1022159
08:00+6вюв41092100 0.4 1020421
11:00+8вюв4883100 0.8 10181048
14:00+9юв4773100 0.3 1016907
17:00+11юв6864100 0.7 10141358
20:00+7ю5890100 0.4 1015932
25 апреля, вс
вс2523:00+7ююв4788100 0.7 10141060
02:00+6ююв4895100 0.4 1013472
05:00+6ююв5896100 1.3 1013489
08:00+6ююв6109295 0.0 1012530
11:00+7ююв71486100 0.1 1010802
14:00+9ююз7127668 4.1 10121346
17:00+10зюз8116011 5.2 10131692
20:00+8юз4870100 0.2 1014288
26 апреля, пн
пн2623:00+5ююз368743 0.7 1015116
02:00+4ююз369098 0.4 1016122
05:00+3ююз23915 0.4 101742
08:00+5ююз36845 0.0 1017222
11:00+9юз586271 0.1 10171314
14:00+11зюз695370 1.1 10161910
17:00+11з684037 1.1 10172355
20:00+8з375697 0.0 1017180